Weipa Observation History
Time Wind Speed Temp Pressure Rel. Hum Rain
05/09:00pm ESE 9-13 kts 26.2°c 1014.0 hPa 69% 0.0mm
05/08:30pm ESE 11-15 kts 26.4°c 1013.7 hPa 69% 0.0mm
05/08:00pm ESE 8-11 kts 26.3°c 1013.4 hPa 69% 0.0mm
05/07:30pm ESE 11-15 kts 26.9°c 1012.9 hPa 67% 0.0mm
05/07:00pm ESE 11-15 kts 27.3°c 1012.7 hPa 66% 0.0mm
05/06:30pm ESE 11-19 kts 27.6°c 1012.4 hPa 65% 0.0mm
05/06:00pm ESE 11-16 kts 27.9°c 1012.1 hPa 64% 0.0mm
05/05:30pm ESE 12-15 kts 28.4°c 1011.7 hPa 63% 0.0mm
05/05:00pm ESE 13-18 kts 28.5°c 1011.6 hPa 62% 0.0mm
05/04:30pm ESE 13-19 kts 29.4°c 1011.3 hPa 58% 0.0mm
05/04:00pm ESE 14-21 kts 29.3°c 1011.4 hPa 59% 0.0mm
05/03:37pm ESE 16-27 kts 29.6°c 1011.3 hPa 58% 0.0mm
05/03:30pm ESE 14-21 kts 29.6°c 1011.3 hPa 58% 0.0mm
05/03:00pm ESE 13-18 kts 29.4°c 1011.6 hPa 58% 0.0mm
05/02:30pm ESE 13-18 kts 29.3°c 1011.9 hPa 59% 0.0mm
05/02:00pm ESE 13-19 kts 29.6°c 1012.2 hPa 58% 0.0mm
05/01:30pm ESE 14-19 kts 29.3°c 1012.5 hPa 59% 0.0mm
05/01:00pm E 15-22 kts 29.4°c 1012.8 hPa 58% 0.0mm
05/12:30pm ESE 13-17 kts 28.8°c 1013.3 hPa 61% 0.0mm
05/12:00pm ESE 12-16 kts 28.5°c 1013.7 hPa 62% 0.0mm
05/11:30am ESE 14-19 kts 28.8°c 1014.1 hPa 61% 0.0mm
05/11:00am SE 11-15 kts 27.6°c 1014.6 hPa 67% 0.0mm
05/10:30am SE 9-12 kts 26.6°c 1014.7 hPa 67% 0.0mm
05/10:00am ESE 11-16 kts 26.6°c 1014.7 hPa 67% 0.0mm
05/09:30am ESE 12-16 kts 26.1°c 1014.8 hPa 67% 0.0mm
05/09:00am ESE 11-14 kts 25.4°c 1014.8 hPa 70% 0.0mm
05/08:30am SE 6-9 kts 24.1°c 1014.6 hPa 73% 0.0mm
05/08:00am SSE 5-8 kts 22.6°c 1014.3 hPa 79% 0.0mm
05/07:30am SE 6-8 kts 21.3°c 1014.1 hPa 85% 0.0mm
05/07:00am SSE 4-6 kts 20.9°c 1013.9 hPa 86% 0.0mm
05/06:30am S 4-6 kts 20.9°c 1013.7 hPa 87% 0.0mm
05/06:00am SE 4-6 kts 20.8°c 1013.6 hPa 86% 0.0mm
05/05:30am SE 5-7 kts 21.2°c 1013.3 hPa 85% 0.0mm
05/05:00am SSE 5-7 kts 21.3°c 1013.2 hPa 84% 0.0mm
05/04:30am SE 5-7 kts 21.1°c 1013.1 hPa 85% 0.0mm
05/04:00am SE 5-7 kts 21.0°c 1013.2 hPa 86% 0.0mm
05/03:30am ESE 6-8 kts 21.2°c 1013.5 hPa 85% 0.0mm
05/03:00am ESE 6-7 kts 21.3°c 1013.7 hPa 83% 0.0mm
05/02:30am ESE 8-10 kts 21.5°c 1013.7 hPa 83% 0.0mm
05/02:00am ESE 7-9 kts 21.7°c 1014.0 hPa 82% 0.0mm
05/01:30am ESE 6-8 kts 21.7°c 1014.4 hPa 81% 0.0mm
05/01:00am SE 6-8 kts 21.9°c 1014.8 hPa 80% 0.0mm
05/12:30am ESE 8-10 kts 22.4°c 1015.0 hPa 78% 0.0mm
05/12:00am ESE 8-9 kts 22.6°c 1015.1 hPa 77% 0.0mm
Time Wind Speed Temp Pressure Rel. Hum Rain
04/11:30pm ESE 7-9 kts 22.9°c 1015.4 hPa 75% 0.0mm
04/11:00pm ESE 9-11 kts 23.4°c 1015.8 hPa 73% 0.0mm
04/10:30pm ESE 10-14 kts 23.7°c 1015.8 hPa 71% 0.0mm
04/10:00pm ESE 12-18 kts 24.2°c 1015.8 hPa 69% 0.0mm
04/09:30pm ESE 10-13 kts 24.5°c 1015.7 hPa 68% 0.0mm
04/09:00pm ESE 14-21 kts 25.0°c 1015.5 hPa 66% 0.0mm
04/08:30pm ESE 11-16 kts 25.4°c 1015.2 hPa 67% 0.0mm
04/08:00pm ESE 13-19 kts 25.9°c 1015.0 hPa 65% 0.0mm
04/07:30pm ESE 9-12 kts 26.0°c 1014.6 hPa 65% 0.0mm
04/07:00pm E 10-13 kts 26.3°c 1014.3 hPa 63% 0.0mm
04/06:30pm E 10-13 kts 27.1°c 1014.0 hPa 60% 0.0mm
04/06:00pm E 11-14 kts 27.5°c 1013.6 hPa 59% 0.0mm
04/05:30pm E 10-12 kts 27.9°c 1013.3 hPa 57% 0.0mm
04/05:00pm E 10-13 kts 28.4°c 1013.0 hPa 56% 0.0mm
04/04:30pm E 10-14 kts 28.7°c 1012.9 hPa 54% 0.0mm
04/04:00pm ESE 9-13 kts 28.9°c 1012.6 hPa 52% 0.0mm
04/03:30pm E 10-16 kts 30.1°c 1012.4 hPa 49% 0.0mm
04/03:00pm ESE 11-15 kts 29.9°c 1012.5 hPa 45% 0.0mm
04/02:30pm ESE 10-15 kts 30.2°c 1012.8 hPa 48% 0.0mm
04/02:00pm ESE 11-14 kts 30.3°c 1013.3 hPa 48% 0.0mm
04/01:30pm ESE 12-18 kts 29.9°c 1013.7 hPa 45% 0.0mm
04/01:00pm ESE 10-17 kts 29.8°c 1014.0 hPa 48% 0.0mm
04/12:30pm ESE 11-15 kts 29.3°c 1014.5 hPa 53% 0.0mm
04/12:00pm ESE 11-16 kts 28.9°c 1015.0 hPa 54% 0.0mm
04/11:30am E 14-17 kts 28.1°c 1015.5 hPa 55% 0.0mm
04/11:00am ESE 12-15 kts 27.5°c 1015.8 hPa 58% 0.0mm
04/10:30am SE 12-16 kts 26.7°c 1016.0 hPa 62% 0.0mm
04/10:00am ESE 13-18 kts 26.3°c 1016.1 hPa 63% 0.0mm
04/09:30am ESE 13-17 kts 25.2°c 1016.1 hPa 66% 0.0mm
04/09:00am SE 10-14 kts 24.5°c 1016.2 hPa 71% 0.0mm
04/08:30am SE 7-10 kts 22.7°c 1016.1 hPa 75% 0.0mm
04/08:00am SSE 5-7 kts 21.4°c 1015.7 hPa 82% 0.0mm
04/07:30am S 4-5 kts 20.1°c 1015.3 hPa 88% 0.0mm
04/07:00am SSE 4-5 kts 19.4°c 1015.0 hPa 91% 0.0mm
04/06:30am S 3-4 kts 19.3°c 1014.7 hPa 89% 0.0mm
04/06:00am SSE 3-4 kts 19.7°c 1014.4 hPa 88% 0.0mm
04/05:30am SSE 4-6 kts 19.9°c 1014.2 hPa 87% 0.0mm
04/05:00am SSE 3-4 kts 19.8°c 1014.1 hPa 87% 0.0mm
04/04:30am SSE 4-5 kts 20.0°c 1013.8 hPa 87% 0.0mm
04/04:00am S 4-5 kts 20.2°c 1014.0 hPa 85% 0.0mm
04/03:30am S 3-4 kts 20.5°c 1014.2 hPa 83% 0.0mm
04/03:00am S 3-4 kts 21.0°c 1014.3 hPa 82% 0.0mm
04/02:30am SSE 4-6 kts 21.6°c 1014.6 hPa 80% 0.0mm
04/02:00am SSE 4-6 kts 21.5°c 1015.0 hPa 81% 0.0mm
04/01:30am SSE 4-5 kts 21.4°c 1015.3 hPa 80% 0.0mm
04/01:00am SE 4-6 kts 21.9°c 1015.7 hPa 78% 0.0mm
04/12:30am SE 6-7 kts 22.0°c 1015.8 hPa 77% 0.0mm
04/12:00am ESE 5-6 kts 22.1°c 1016.0 hPa 75% 0.0mm
Time Wind Speed Temp Pressure Rel. Hum Rain
03/11:30pm ESE 5-7 kts 22.4°c 1016.0 hPa 73% 0.0mm
03/11:00pm ESE 7-8 kts 22.9°c 1016.2 hPa 71% 0.0mm
03/10:30pm ESE 8-11 kts 23.4°c 1016.3 hPa 68% 0.0mm
03/10:00pm ESE 7-9 kts 23.4°c 1016.4 hPa 66% 0.0mm
03/09:30pm ESE 7-8 kts 23.7°c 1016.3 hPa 65% 0.0mm
03/09:00pm ESE 6-8 kts 24.0°c 1016.2 hPa 64% 0.0mm
03/08:30pm ESE 8-10 kts 24.8°c 1015.9 hPa 58% 0.0mm
03/08:00pm ESE 11-13 kts 25.5°c 1015.3 hPa 57% 0.0mm
03/07:30pm ESE 11-15 kts 25.9°c 1014.8 hPa 57% 0.0mm
03/07:00pm ESE 9-13 kts 26.3°c 1014.3 hPa 54% 0.0mm
03/06:30pm E 12-17 kts 26.9°c 1013.8 hPa 52% 0.0mm
03/06:00pm ESE 9-14 kts 27.4°c 1013.5 hPa 51% 0.0mm
03/05:30pm ESE 12-16 kts 28.5°c 1013.0 hPa 46% 0.0mm
03/05:00pm E 11-15 kts 29.3°c 1012.6 hPa 46% 0.0mm
03/04:30pm ESE 12-18 kts 29.9°c 1012.2 hPa 42% 0.0mm
03/04:00pm ESE 13-18 kts 29.9°c 1012.2 hPa 43% 0.0mm
03/03:30pm ESE 13-17 kts 30.3°c 1012.2 hPa 42% 0.0mm
03/03:00pm ESE 14-19 kts 30.3°c 1012.2 hPa 42% 0.0mm
03/02:30pm ESE 12-18 kts 29.8°c 1012.4 hPa 43% 0.0mm
03/02:00pm ESE 13-18 kts 30.0°c 1012.9 hPa 44% 0.0mm
03/01:30pm SE 12-18 kts 29.7°c 1013.3 hPa 45% 0.0mm
03/01:00pm ESE 13-17 kts 29.5°c 1013.9 hPa 45% 0.0mm
03/12:30pm ESE 13-20 kts 29.4°c 1014.4 hPa 47% 0.0mm
03/12:00pm ESE 15-19 kts 28.7°c 1014.9 hPa 49% 0.0mm
03/11:30am ESE 16-20 kts 27.8°c 1015.4 hPa 52% 0.0mm
03/11:00am ESE 14-20 kts 27.6°c 1015.7 hPa 54% 0.0mm
03/10:30am ESE 15-19 kts 26.6°c 1016.0 hPa 62% 0.0mm
03/10:00am ESE 15-18 kts 25.7°c 1016.2 hPa 65% 0.0mm
03/09:30am ESE 14-18 kts 25.2°c 1016.5 hPa 68% 0.0mm
03/09:00am SE 9-13 kts 24.0°c 1016.4 hPa 75% 0.0mm
03/08:30am SE 6-9 kts 22.1°c 1016.5 hPa 82% 0.0mm
03/08:00am SSE 5-9 kts 21.0°c 1016.2 hPa 88% 0.0mm
03/07:30am SSE 5-6 kts 19.8°c 1015.8 hPa 92% 0.0mm
03/07:00am SSE 4-6 kts 19.0°c 1015.4 hPa 94% 0.0mm
03/06:30am SSE 5-6 kts 18.7°c 1015.0 hPa 93% 0.0mm
03/06:00am SSE 5-6 kts 18.7°c 1014.7 hPa 93% 0.0mm
03/05:30am SSE 4-5 kts 18.8°c 1014.6 hPa 93% 0.0mm
03/05:00am SSE 4-5 kts 18.9°c 1014.5 hPa 93% 0.0mm
03/04:30am SSE 5-6 kts 19.1°c 1014.4 hPa 92% 0.0mm
03/04:00am SE 4-5 kts 19.1°c 1014.5 hPa 92% 0.0mm
03/03:30am SE 3-4 kts 19.0°c 1014.5 hPa 91% 0.0mm
03/03:00am SE 4 kts 19.2°c 1014.7 hPa 90% 0.0mm
03/02:30am SE 4-5 kts 19.1°c 1014.9 hPa 88% 0.0mm
03/02:00am CALM 0 kts 19.5°c 1015.2 hPa 84% 0.0mm
03/01:30am SE 3-5 kts 20.0°c 1015.5 hPa 83% 0.0mm
03/01:00am SSE 4-5 kts 19.9°c 1015.7 hPa 82% 0.0mm
03/12:30am ESE 1-4 kts 20.4°c 1015.8 hPa 77% 0.0mm
03/12:00am E 4-5 kts 21.3°c 1015.9 hPa 73% 0.0mm